Time,TemperatureF,DewpointF,PressureIn,WindDirection,WindDirectionDegrees,WindSpeedMPH,WindSpeedGustMPH,Humidity,HourlyPrecipIn,Conditions,Clouds,dailyrainin,SolarRadiationWatts/m^2,SoftwareType,DateUTC
2013-07-04 00:00:00,70.4,52.4,29.89,SSE,159,1.0,3.0,53,0.00,,,0.00,0,Wunderground v.1.15,2013-07-04 05:00:00,
2013-07-04 00:05:00,70.1,53.2,29.89,South,191,1.0,3.0,55,0.00,,,0.00,0,Wunderground v.1.15,2013-07-04 05:05:00,
2013-07-04 00:15:00,69.5,53.6,29.89,South,173,2.0,2.0,57,0.00,,,0.00,0,Wunderground v.1.15,2013-07-04 05:15:00,
2013-07-04 00:20:00,69.3,53.9,29.89,SSE,167,2.0,2.0,58,0.00,,,0.00,0,Wunderground v.1.15,2013-07-04 05:20:00,
2013-07-04 00:25:00,69.2,54.3,29.89,South,179,2.0,2.0,59,0.00,,,0.00,0,Wunderground v.1.15,2013-07-04 05:25:00,
2013-07-04 00:30:00,69.1,54.6,29.89,South,176,2.0,2.0,60,0.00,,,0.00,0,Wunderground v.1.15,2013-07-04 05:30:00,
2013-07-04 00:35:00,68.9,54.4,29.89,South,176,1.0,2.0,60,0.00,,,0.00,0,Wunderground v.1.15,2013-07-04 05:35:00,
2013-07-04 00:40:00,68.8,54.8,29.89,South,176,1.0,3.0,61,0.00,,,0.00,0,Wunderground v.1.15,2013-07-04 05:40:00,
2013-07-04 00:45:00,68.8,54.8,29.89,South,176,1.0,3.0,61,0.00,,,0.00,0,Wunderground v.1.15,2013-07-04 05:45:00,
2013-07-04 00:50:00,68.7,55.2,29.89,South,175,1.0,1.0,62,0.00,,,0.00,0,Wunderground v.1.15,2013-07-04 05:50:00,
2013-07-04 00:55:00,68.6,55.5,29.89,South,175,1.0,2.0,63,0.00,,,0.00,0,Wunderground v.1.15,2013-07-04 05:55:00,
2013-07-04 01:05:00,68.4,55.7,29.89,South,175,1.0,2.0,64,0.00,,,0.00,0,Wunderground v.1.15,2013-07-04 06:05:00,
2013-07-04 01:15:00,68.0,55.8,29.89,South,175,1.0,1.0,65,0.00,,,0.00,0,Wunderground v.1.15,2013-07-04 06:15:00,
2013-07-04 01:20:00,67.8,56.0,29.88,South,175,1.0,1.0,66,0.00,,,0.00,0,Wunderground v.1.15,2013-07-04 06:20:00,
2013-07-04 01:25:00,67.6,55.8,29.88,South,175,1.0,1.0,66,0.00,,,0.00,0,Wunderground v.1.15,2013-07-04 06:25:00,
2013-07-04 01:30:00,67.4,56.1,29.88,South,175,1.0,1.0,67,0.00,,,0.00,0,Wunderground v.1.15,2013-07-04 06:30:00,
2013-07-04 01:40:00,67.3,56.0,29.88,South,175,1.0,1.0,67,0.00,,,0.00,0,Wunderground v.1.15,2013-07-04 06:40:00,
2013-07-04 01:45:00,67.2,56.3,29.88,South,175,1.0,4.0,68,0.00,,,0.00,0,Wunderground v.1.15,2013-07-04 06:45:00,
2013-07-04 01:50:00,67.2,56.3,29.88,South,175,1.0,1.0,68,0.00,,,0.00,0,Wunderground v.1.15,2013-07-04 06:50:00,
2013-07-04 01:55:00,67.1,56.2,29.88,South,175,1.0,1.0,68,0.00,,,0.00,0,Wunderground v.1.15,2013-07-04 06:55:00,
2013-07-04 02:00:00,67.0,56.1,29.88,South,175,1.0,1.0,68,0.00,,,0.00,0,Wunderground v.1.15,2013-07-04 07:00:00,
2013-07-04 02:05:00,66.9,56.4,29.88,South,175,1.0,1.0,69,0.00,,,0.00,0,Wunderground v.1.15,2013-07-04 07:05:00,
2013-07-04 02:15:00,66.6,56.1,29.88,South,175,1.0,1.0,69,0.00,,,0.00,0,Wunderground v.1.15,2013-07-04 07:15:00,
2013-07-04 02:20:00,66.5,56.4,29.88,South,175,1.0,2.0,70,0.00,,,0.00,0,Wunderground v.1.15,2013-07-04 07:20:00,
2013-07-04 02:25:00,66.5,56.4,29.88,South,175,1.0,3.0,70,0.00,,,0.00,0,Wunderground v.1.15,2013-07-04 07:25:00,
2013-07-04 02:30:00,66.3,56.2,29.88,South,175,1.0,1.0,70,0.00,,,0.00,0,Wunderground v.1.15,2013-07-04 07:30:00,
2013-07-04 02:35:00,66.2,56.1,29.87,South,175,1.0,2.0,70,0.00,,,0.00,0,Wunderground v.1.15,2013-07-04 07:35:00,
2013-07-04 02:45:00,65.9,56.2,29.87,South,175,1.0,1.0,71,0.00,,,0.00,0,Wunderground v.1.15,2013-07-04 07:45:00,
2013-07-04 02:50:00,65.7,56.4,29.87,South,175,1.0,1.0,72,0.00,,,0.00,0,Wunderground v.1.15,2013-07-04 07:50:00,
2013-07-04 02:55:00,65.6,56.3,29.87,South,175,1.0,1.0,72,0.00,,,0.00,0,Wunderground v.1.15,2013-07-04 07:55:00,
2013-07-04 03:00:00,65.5,56.2,29.87,South,175,1.0,1.0,72,0.00,,,0.00,0,Wunderground v.1.15,2013-07-04 08:00:00,
2013-07-04 03:05:00,65.4,56.1,29.87,SE,146,1.0,2.0,72,0.00,,,0.00,0,Wunderground v.1.15,2013-07-04 08:05:00,
2013-07-04 03:15:00,65.2,56.3,29.87,SSE,165,2.0,2.0,73,0.00,,,0.00,0,Wunderground v.1.15,2013-07-04 08:15:00,
2013-07-04 03:20:00,65.2,56.3,29.87,SSE,165,2.0,2.0,73,0.00,,,0.00,0,Wunderground v.1.15,2013-07-04 08:20:00,
2013-07-04 03:25:00,65.1,56.6,29.87,SSE,165,2.0,2.0,74,0.00,,,0.00,0,Wunderground v.1.15,2013-07-04 08:25:00,
2013-07-04 03:30:00,65.0,56.5,29.87,SSE,164,1.0,1.0,74,0.00,,,0.00,0,Wunderground v.1.15,2013-07-04 08:30:00,
2013-07-04 03:35:00,64.9,56.4,29.86,SSE,165,1.0,1.0,74,0.00,,,0.00,0,Wunderground v.1.15,2013-07-04 08:35:00,
2013-07-04 03:40:00,64.9,56.4,29.86,SSE,165,1.0,2.0,74,0.00,,,0.00,0,Wunderground v.1.15,2013-07-04 08:40:00,
2013-07-04 03:50:00,64.9,56.4,29.86,SSE,165,1.0,1.0,74,0.00,,,0.00,0,Wunderground v.1.15,2013-07-04 08:50:00,
2013-07-04 03:55:00,64.8,56.3,29.86,SSE,164,1.0,2.0,74,0.00,,,0.00,0,Wunderground v.1.15,2013-07-04 08:55:00,
2013-07-04 04:00:00,64.7,56.6,29.86,SSE,165,1.0,1.0,75,0.00,,,0.00,0,Wunderground v.1.15,2013-07-04 09:00:00,
2013-07-04 04:05:00,64.6,56.5,29.86,SSE,165,0.0,1.0,75,0.00,,,0.00,0,Wunderground v.1.15,2013-07-04 09:05:00,
2013-07-04 04:15:00,64.3,56.2,29.86,SSE,165,0.0,0.0,75,0.00,,,0.00,0,Wunderground v.1.15,2013-07-04 09:15:00,
2013-07-04 04:20:00,64.0,55.9,29.86,SSE,165,0.0,0.0,75,0.00,,,0.00,0,Wunderground v.1.15,2013-07-04 09:20:00,
2013-07-04 04:25:00,63.7,56.0,29.86,SSE,165,0.0,0.0,76,0.00,,,0.00,0,Wunderground v.1.15,2013-07-04 09:25:00,
2013-07-04 04:30:00,63.5,55.8,29.86,SSE,164,0.0,0.0,76,0.00,,,0.00,0,Wunderground v.1.15,2013-07-04 09:30:00,
2013-07-04 04:35:00,63.5,56.2,29.86,SSE,165,0.0,0.0,77,0.00,,,0.00,0,Wunderground v.1.15,2013-07-04 09:35:00,
2013-07-04 04:45:00,63.4,56.1,29.86,SSE,164,0.0,0.0,77,0.00,,,0.00,0,Wunderground v.1.15,2013-07-04 09:45:00,
2013-07-04 04:55:00,63.5,56.2,29.86,SSE,164,0.0,0.0,77,0.00,,,0.00,0,Wunderground v.1.15,2013-07-04 09:55:00,
2013-07-04 05:00:00,63.6,56.3,29.86,SSE,165,0.0,0.0,77,0.00,,,0.00,0,Wunderground v.1.15,2013-07-04 10:00:00,
2013-07-04 05:05:00,63.6,56.3,29.86,SSE,164,0.0,0.0,77,0.00,,,0.00,0,Wunderground v.1.15,2013-07-04 10:05:00,
2013-07-04 05:15:00,63.8,56.4,29.86,SSE,165,0.0,0.0,77,0.00,,,0.00,0,Wunderground v.1.15,2013-07-04 10:15:00,
2013-07-04 05:25:00,63.9,56.5,29.86,SSE,165,0.0,0.0,77,0.00,,,0.00,0,Wunderground v.1.15,2013-07-04 10:25:00,
2013-07-04 05:30:00,63.9,56.5,29.86,SSE,165,0.0,0.0,77,0.00,,,0.00,0,Wunderground v.1.15,2013-07-04 10:30:00,
2013-07-04 05:40:00,63.8,56.4,29.86,SSE,164,0.0,0.0,77,0.00,,,0.00,9,Wunderground v.1.15,2013-07-04 10:40:00,
2013-07-04 05:45:00,63.8,56.8,29.86,SSE,164,0.0,0.0,78,0.00,,,0.00,11,Wunderground v.1.15,2013-07-04 10:45:00,
2013-07-04 05:50:00,63.7,56.7,29.87,SSE,165,0.0,0.0,78,0.00,,,0.00,16,Wunderground v.1.15,2013-07-04 10:50:00,
2013-07-04 05:55:00,63.6,56.6,29.87,SSE,165,0.0,0.0,78,0.00,,,0.00,18,Wunderground v.1.15,2013-07-04 10:55:00,
2013-07-04 06:00:00,63.7,57.1,29.87,SSE,165,0.0,0.0,79,0.00,,,0.00,21,Wunderground v.1.15,2013-07-04 11:00:00,
2013-07-04 06:05:00,63.8,57.2,29.87,SSE,165,0.0,0.0,79,0.00,,,0.00,23,Wunderground v.1.15,2013-07-04 11:05:00,
2013-07-04 06:15:00,64.1,57.1,29.87,SSE,165,1.0,3.0,78,0.00,,,0.00,30,Wunderground v.1.15,2013-07-04 11:15:00,
2013-07-04 06:20:00,64.3,57.3,29.86,SSE,164,1.0,1.0,78,0.00,,,0.00,33,Wunderground v.1.15,2013-07-04 11:20:00,
2013-07-04 06:25:00,64.3,57.3,29.86,SSE,165,1.0,1.0,78,0.00,,,0.00,46,Wunderground v.1.15,2013-07-04 11:25:00,
2013-07-04 06:30:00,64.4,57.4,29.86,SSE,164,1.0,1.0,78,0.00,,,0.00,42,Wunderground v.1.15,2013-07-04 11:30:00,
2013-07-04 06:35:00,64.5,57.5,29.86,SSE,165,1.0,1.0,78,0.00,,,0.00,44,Wunderground v.1.15,2013-07-04 11:35:00,
2013-07-04 06:40:00,64.5,57.5,29.86,SSE,165,2.0,2.0,78,0.00,,,0.00,62,Wunderground v.1.15,2013-07-04 11:40:00,
2013-07-04 06:45:00,64.6,57.6,29.86,South,173,2.0,2.0,78,0.00,,,0.00,54,Wunderground v.1.15,2013-07-04 11:45:00,
2013-07-04 06:50:00,64.8,57.8,29.86,South,172,2.0,2.0,78,0.00,,,0.00,65,Wunderground v.1.15,2013-07-04 11:50:00,
2013-07-04 07:00:00,65.2,58.2,29.86,SSE,159,2.0,2.0,78,0.00,,,0.00,81,Wunderground v.1.15,2013-07-04 12:00:00,
2013-07-04 07:05:00,65.3,58.3,29.87,South,184,2.0,2.0,78,0.00,,,0.00,74,Wunderground v.1.15,2013-07-04 12:05:00,
2013-07-04 07:15:00,65.6,58.6,29.87,South,186,2.0,2.0,78,0.00,,,0.00,91,Wunderground v.1.15,2013-07-04 12:15:00,
2013-07-04 07:20:00,65.8,58.7,29.87,South,178,3.0,3.0,78,0.00,,,0.00,93,Wunderground v.1.15,2013-07-04 12:20:00,
2013-07-04 07:30:00,66.3,58.9,29.87,South,183,3.0,3.0,77,0.00,,,0.00,100,Wunderground v.1.15,2013-07-04 12:30:00,
2013-07-04 07:35:00,66.7,59.3,29.87,South,184,3.0,3.0,77,0.00,,,0.00,107,Wunderground v.1.15,2013-07-04 12:35:00,
2013-07-04 07:40:00,67.0,59.2,29.87,SSW,209,3.0,4.0,76,0.00,,,0.00,139,Wunderground v.1.15,2013-07-04 12:40:00,
2013-07-04 07:45:00,67.4,59.6,29.87,SSW,210,3.0,4.0,76,0.00,,,0.00,288,Wunderground v.1.15,2013-07-04 12:45:00,
2013-07-04 07:50:00,67.8,59.6,29.88,SSW,194,4.0,4.0,75,0.00,,,0.00,285,Wunderground v.1.15,2013-07-04 12:50:00,
2013-07-04 07:55:00,68.2,59.6,29.88,SW,221,4.0,4.0,74,0.00,,,0.00,302,Wunderground v.1.15,2013-07-04 12:55:00,
2013-07-04 08:05:00,68.7,60.1,29.87,SW,227,3.0,7.0,74,0.00,,,0.00,343,Wunderground v.1.15,2013-07-04 13:05:00,
2013-07-04 08:15:00,69.0,59.6,29.87,South,191,4.0,5.0,72,0.00,,,0.00,218,Wunderground v.1.15,2013-07-04 13:15:00,
2013-07-04 08:20:00,69.0,60.0,29.87,SSW,209,4.0,4.0,73,0.00,,,0.00,381,Wunderground v.1.15,2013-07-04 13:20:00,
2013-07-04 08:25:00,69.3,60.3,29.87,SSW,201,3.0,4.0,73,0.00,,,0.00,390,Wunderground v.1.15,2013-07-04 13:25:00,
2013-07-04 08:30:00,69.7,60.7,29.87,SSW,208,3.0,3.0,73,0.00,,,0.00,401,Wunderground v.1.15,2013-07-04 13:30:00,
2013-07-04 08:40:00,70.4,60.5,29.87,SSW,192,4.0,4.0,71,0.00,,,0.00,425,Wunderground v.1.15,2013-07-04 13:40:00,
2013-07-04 08:45:00,70.6,60.7,29.87,South,180,3.0,4.0,71,0.00,,,0.00,438,Wunderground v.1.15,2013-07-04 13:45:00,
2013-07-04 08:50:00,70.9,61.0,29.86,SSW,209,3.0,3.0,71,0.00,,,0.00,445,Wunderground v.1.15,2013-07-04 13:50:00,
2013-07-04 08:55:00,71.2,60.9,29.86,South,188,3.0,4.0,70,0.00,,,0.00,459,Wunderground v.1.15,2013-07-04 13:55:00,
2013-07-04 09:00:00,71.3,60.6,29.86,South,190,4.0,4.0,69,0.00,,,0.00,459,Wunderground v.1.15,2013-07-04 14:00:00,
2013-07-04 09:05:00,71.5,61.2,29.87,SSW,208,3.0,4.0,70,0.00,,,0.00,478,Wunderground v.1.15,2013-07-04 14:05:00,
2013-07-04 09:15:00,72.4,61.2,29.87,South,186,3.0,3.0,68,0.00,,,0.00,506,Wunderground v.1.15,2013-07-04 14:15:00,
2013-07-04 09:25:00,73.1,61.5,29.86,SW,223,3.0,3.0,67,0.00,,,0.00,533,Wunderground v.1.15,2013-07-04 14:25:00,
2013-07-04 09:30:00,73.2,60.7,29.86,SSW,195,3.0,3.0,65,0.00,,,0.00,550,Wunderground v.1.15,2013-07-04 14:30:00,
2013-07-04 09:35:00,73.4,61.3,29.86,SSW,208,3.0,3.0,66,0.00,,,0.00,561,Wunderground v.1.15,2013-07-04 14:35:00,
2013-07-04 09:45:00,73.9,61.4,29.86,SSW,200,3.0,6.0,65,0.00,,,0.00,585,Wunderground v.1.15,2013-07-04 14:45:00,
2013-07-04 09:50:00,74.4,62.7,29.86,South,171,3.0,3.0,67,0.00,,,0.00,596,Wunderground v.1.15,2013-07-04 14:50:00,
2013-07-04 09:55:00,74.7,62.1,29.86,SSW,205,3.0,5.0,65,0.00,,,0.00,606,Wunderground v.1.15,2013-07-04 14:55:00,
2013-07-04 10:00:00,75.1,62.1,29.86,SSE,162,3.0,3.0,64,0.00,,,0.00,622,Wunderground v.1.15,2013-07-04 15:00:00,
2013-07-04 10:05:00,75.1,62.5,29.86,South,176,3.0,3.0,65,0.00,,,0.00,635,Wunderground v.1.15,2013-07-04 15:05:00,
2013-07-04 10:15:00,75.5,62.5,29.86,South,184,3.0,3.0,64,0.00,,,0.00,661,Wunderground v.1.15,2013-07-04 15:15:00,
2013-07-04 10:20:00,75.8,62.8,29.85,SSW,210,3.0,3.0,64,0.00,,,0.00,670,Wunderground v.1.15,2013-07-04 15:20:00,
2013-07-04 10:25:00,76.4,63.3,29.85,SSE,165,3.0,3.0,64,0.00,,,0.00,680,Wunderground v.1.15,2013-07-04 15:25:00,
2013-07-04 10:30:00,76.6,62.6,29.85,South,179,3.0,3.0,62,0.00,,,0.00,691,Wunderground v.1.15,2013-07-04 15:30:00,
2013-07-04 10:35:00,76.6,62.6,29.85,SSW,209,4.0,4.0,62,0.00,,,0.00,700,Wunderground v.1.15,2013-07-04 15:35:00,
2013-07-04 10:40:00,76.8,63.2,29.85,South,190,4.0,4.0,63,0.00,,,0.00,710,Wunderground v.1.15,2013-07-04 15:40:00,
2013-07-04 10:50:00,77.4,63.4,29.85,SSW,195,3.0,4.0,62,0.00,,,0.00,735,Wunderground v.1.15,2013-07-04 15:50:00,
2013-07-04 10:55:00,77.7,62.7,29.85,ESE,119,3.0,4.0,60,0.00,,,0.00,740,Wunderground v.1.15,2013-07-04 15:55:00,
2013-07-04 11:00:00,78.1,63.6,29.85,SSE,150,3.0,3.0,61,0.00,,,0.00,749,Wunderground v.1.15,2013-07-04 16:00:00,
2013-07-04 11:05:00,78.6,64.0,29.85,SSW,201,3.0,4.0,61,0.00,,,0.00,758,Wunderground v.1.15,2013-07-04 16:05:00,
2013-07-04 11:15:00,78.7,63.6,29.85,SSW,198,4.0,7.0,60,0.00,,,0.00,773,Wunderground v.1.15,2013-07-04 16:15:00,
2013-07-04 11:25:00,79.0,64.4,29.85,SE,134,5.0,5.0,61,0.00,,,0.00,789,Wunderground v.1.15,2013-07-04 16:25:00,
2013-07-04 11:30:00,79.1,63.5,29.85,SSW,208,5.0,5.0,59,0.00,,,0.00,796,Wunderground v.1.15,2013-07-04 16:30:00,
2013-07-04 11:35:00,79.4,64.8,29.84,ESE,115,4.0,7.0,61,0.00,,,0.00,803,Wunderground v.1.15,2013-07-04 16:35:00,
2013-07-04 11:40:00,79.8,65.6,29.84,SSE,159,4.0,4.0,62,0.00,,,0.00,810,Wunderground v.1.15,2013-07-04 16:40:00,
2013-07-04 11:45:00,80.2,64.1,29.84,SSW,192,4.0,5.0,58,0.00,,,0.00,819,Wunderground v.1.15,2013-07-04 16:45:00,
2013-07-04 11:55:00,80.6,64.5,29.84,South,190,3.0,3.0,58,0.00,,,0.00,812,Wunderground v.1.15,2013-07-04 16:55:00,
2013-07-04 12:00:00,80.4,63.3,29.84,SSE,152,4.0,4.0,56,0.00,,,0.00,854,Wunderground v.1.15,2013-07-04 17:00:00,
2013-07-04 12:05:00,80.6,63.5,29.84,SE,143,4.0,4.0,56,0.00,,,0.00,809,Wunderground v.1.15,2013-07-04 17:05:00,
2013-07-04 12:15:00,81.2,64.5,29.84,South,191,4.0,4.0,57,0.00,,,0.00,858,Wunderground v.1.15,2013-07-04 17:15:00,
2013-07-04 12:25:00,81.7,62.9,29.84,South,177,4.0,5.0,53,0.00,,,0.00,863,Wunderground v.1.15,2013-07-04 17:25:00,
2013-07-04 12:30:00,81.9,62.5,29.84,South,182,5.0,5.0,52,0.00,,,0.00,867,Wunderground v.1.15,2013-07-04 17:30:00,
2013-07-04 12:35:00,82.0,63.7,29.83,SSW,195,5.0,7.0,54,0.00,,,0.00,868,Wunderground v.1.15,2013-07-04 17:35:00,
2013-07-04 12:40:00,82.5,64.2,29.83,South,182,4.0,9.0,54,0.00,,,0.00,875,Wunderground v.1.15,2013-07-04 17:40:00,
2013-07-04 12:45:00,82.7,64.4,29.83,South,182,5.0,10.0,54,0.00,,,0.00,874,Wunderground v.1.15,2013-07-04 17:45:00,
2013-07-04 12:50:00,82.7,63.3,29.83,South,188,6.0,6.0,52,0.00,,,0.00,879,Wunderground v.1.15,2013-07-04 17:50:00,
2013-07-04 13:00:00,82.9,62.9,29.83,SSW,205,6.0,6.0,51,0.00,,,0.00,881,Wunderground v.1.15,2013-07-04 18:00:00,
2013-07-04 13:05:00,82.9,63.5,29.83,SSW,202,6.0,6.0,52,0.00,,,0.00,888,Wunderground v.1.15,2013-07-04 18:05:00,
2013-07-04 13:15:00,83.2,63.7,29.83,SSW,210,5.0,6.0,52,0.00,,,0.00,886,Wunderground v.1.15,2013-07-04 18:15:00,
2013-07-04 13:20:00,83.5,62.9,29.83,SSW,194,4.0,4.0,50,0.00,,,0.00,882,Wunderground v.1.15,2013-07-04 18:20:00,
2013-07-04 13:30:00,83.6,63.6,29.83,South,191,5.0,10.0,51,0.00,,,0.00,900,Wunderground v.1.15,2013-07-04 18:30:00,
2013-07-04 13:35:00,83.6,61.8,29.82,South,182,6.0,10.0,48,0.00,,,0.00,888,Wunderground v.1.15,2013-07-04 18:35:00,
2013-07-04 13:45:00,83.7,60.7,29.82,SSE,159,6.0,10.0,46,0.00,,,0.00,803,Wunderground v.1.15,2013-07-04 18:45:00,
2013-07-04 13:50:00,83.7,61.3,29.82,SSW,199,7.0,7.0,47,0.00,,,0.00,891,Wunderground v.1.15,2013-07-04 18:50:00,
2013-07-04 13:55:00,83.9,61.5,29.82,SSW,197,7.0,9.0,47,0.00,,,0.00,844,Wunderground v.1.15,2013-07-04 18:55:00,
2013-07-04 14:00:00,84.1,61.1,29.82,South,186,7.0,10.0,46,0.00,,,0.00,888,Wunderground v.1.15,2013-07-04 19:00:00,
2013-07-04 14:05:00,84.4,61.4,29.81,SE,131,7.0,10.0,46,0.00,,,0.00,886,Wunderground v.1.15,2013-07-04 19:05:00,
2013-07-04 14:15:00,84.5,61.4,29.81,SSW,209,7.0,7.0,46,0.00,,,0.00,877,Wunderground v.1.15,2013-07-04 19:15:00,
2013-07-04 14:20:00,84.5,60.2,29.81,South,182,7.0,7.0,44,0.00,,,0.00,849,Wunderground v.1.15,2013-07-04 19:20:00,
2013-07-04 14:25:00,84.7,62.2,29.81,South,182,7.0,7.0,47,0.00,,,0.00,861,Wunderground v.1.15,2013-07-04 19:25:00,
2013-07-04 14:35:00,85.0,60.0,29.81,SW,214,6.0,8.0,43,0.00,,,0.00,853,Wunderground v.1.15,2013-07-04 19:35:00,
2013-07-04 14:40:00,85.2,61.5,29.81,South,176,6.0,6.0,45,0.00,,,0.00,853,Wunderground v.1.15,2013-07-04 19:40:00,
2013-07-04 14:45:00,85.5,61.7,29.81,SSW,203,6.0,6.0,45,0.00,,,0.00,849,Wunderground v.1.15,2013-07-04 19:45:00,
2013-07-04 14:50:00,85.4,59.7,29.80,WSW,254,6.0,11.0,42,0.00,,,0.00,846,Wunderground v.1.15,2013-07-04 19:50:00,
2013-07-04 14:55:00,85.3,60.3,29.80,SSE,161,7.0,11.0,43,0.00,,,0.00,800,Wunderground v.1.15,2013-07-04 19:55:00,
2013-07-04 15:05:00,85.6,59.2,29.80,South,184,7.0,9.0,41,0.00,,,0.00,800,Wunderground v.1.15,2013-07-04 20:05:00,
2013-07-04 15:15:00,85.7,58.6,29.80,SSW,202,7.0,7.0,40,0.00,,,0.00,784,Wunderground v.1.15,2013-07-04 20:15:00,
2013-07-04 15:20:00,85.7,60.0,29.80,South,180,7.0,7.0,42,0.00,,,0.00,780,Wunderground v.1.15,2013-07-04 20:20:00,
2013-07-04 15:25:00,85.9,59.5,29.80,SSW,213,6.0,7.0,41,0.00,,,0.00,772,Wunderground v.1.15,2013-07-04 20:25:00,
2013-07-04 15:35:00,86.0,58.9,29.80,SSE,165,6.0,8.0,40,0.00,,,0.00,759,Wunderground v.1.15,2013-07-04 20:35:00,
2013-07-04 15:40:00,85.9,58.1,29.80,SE,142,6.0,9.0,39,0.00,,,0.00,751,Wunderground v.1.15,2013-07-04 20:40:00,
2013-07-04 15:45:00,85.9,58.8,29.80,SE,138,7.0,9.0,40,0.00,,,0.00,742,Wunderground v.1.15,2013-07-04 20:45:00,
2013-07-04 15:50:00,86.3,59.8,29.80,SSE,152,7.0,10.0,41,0.00,,,0.00,729,Wunderground v.1.15,2013-07-04 20:50:00,
2013-07-04 15:55:00,86.5,59.3,29.80,SE,146,6.0,10.0,40,0.00,,,0.00,717,Wunderground v.1.15,2013-07-04 20:55:00,
2013-07-04 16:00:00,86.4,58.5,29.80,SSE,160,6.0,6.0,39,0.00,,,0.00,705,Wunderground v.1.15,2013-07-04 21:00:00,
2013-07-04 16:05:00,86.6,60.1,29.80,SSW,213,5.0,7.0,41,0.00,,,0.00,146,Wunderground v.1.15,2013-07-04 21:05:00,
2013-07-04 16:15:00,86.4,58.5,29.80,South,175,6.0,12.0,39,0.00,,,0.00,132,Wunderground v.1.15,2013-07-04 21:15:00,
2013-07-04 16:20:00,86.4,58.5,29.80,SSE,151,5.0,5.0,39,0.00,,,0.00,134,Wunderground v.1.15,2013-07-04 21:20:00,
2013-07-04 16:25:00,86.2,58.3,29.80,SSW,196,5.0,12.0,39,0.00,,,0.00,141,Wunderground v.1.15,2013-07-04 21:25:00,
2013-07-04 16:30:00,86.0,58.9,29.80,SSW,196,6.0,6.0,40,0.00,,,0.00,139,Wunderground v.1.15,2013-07-04 21:30:00,
2013-07-04 16:35:00,86.0,60.9,29.80,South,182,6.0,6.0,43,0.00,,,0.00,139,Wunderground v.1.15,2013-07-04 21:35:00,
2013-07-04 16:40:00,86.3,58.4,29.80,SW,220,5.0,6.0,39,0.00,,,0.00,178,Wunderground v.1.15,2013-07-04 21:40:00,
2013-07-04 16:45:00,86.3,58.4,29.80,SSW,195,6.0,6.0,39,0.00,,,0.00,127,Wunderground v.1.15,2013-07-04 21:45:00,
2013-07-04 16:50:00,86.2,56.9,29.79,South,186,6.0,6.0,37,0.00,,,0.00,118,Wunderground v.1.15,2013-07-04 21:50:00,
2013-07-04 16:55:00,86.3,57.0,29.79,South,173,6.0,7.0,37,0.00,,,0.00,114,Wunderground v.1.15,2013-07-04 21:55:00,
2013-07-04 17:00:00,86.2,57.6,29.79,SW,223,6.0,11.0,38,0.00,,,0.00,114,Wunderground v.1.15,2013-07-04 22:00:00,
2013-07-04 17:05:00,86.1,57.5,29.79,SSE,153,6.0,11.0,38,0.00,,,0.00,100,Wunderground v.1.15,2013-07-04 22:05:00,
2013-07-04 17:15:00,86.1,59.6,29.79,SSE,163,6.0,6.0,41,0.00,,,0.00,114,Wunderground v.1.15,2013-07-04 22:15:00,
2013-07-04 17:20:00,86.1,57.5,29.78,SE,144,5.0,8.0,38,0.00,,,0.00,116,Wunderground v.1.15,2013-07-04 22:20:00,
2013-07-04 17:25:00,86.1,58.2,29.78,SE,141,5.0,8.0,39,0.00,,,0.00,125,Wunderground v.1.15,2013-07-04 22:25:00,
2013-07-04 17:30:00,86.1,59.0,29.78,SSE,160,5.0,8.0,40,0.00,,,0.00,135,Wunderground v.1.15,2013-07-04 22:30:00,
2013-07-04 17:35:00,85.9,58.1,29.78,South,184,6.0,9.0,39,0.00,,,0.00,125,Wunderground v.1.15,2013-07-04 22:35:00,
2013-07-04 17:40:00,85.5,57.7,29.78,SE,133,7.0,7.0,39,0.00,,,0.00,113,Wunderground v.1.15,2013-07-04 22:40:00,
2013-07-04 17:45:00,84.9,57.9,29.78,South,169,5.0,7.0,40,0.00,,,0.00,86,Wunderground v.1.15,2013-07-04 22:45:00,
2013-07-04 17:55:00,84.5,58.9,29.78,South,191,5.0,5.0,42,0.00,,,0.00,100,Wunderground v.1.15,2013-07-04 22:55:00,
2013-07-04 18:00:00,84.5,58.9,29.78,South,171,5.0,5.0,42,0.00,,,0.00,104,Wunderground v.1.15,2013-07-04 23:00:00,
2013-07-04 18:05:00,84.5,58.9,29.78,South,176,4.0,5.0,42,0.00,,,0.00,114,Wunderground v.1.15,2013-07-04 23:05:00,
2013-07-04 18:15:00,84.9,59.2,29.78,South,182,5.0,6.0,42,0.00,,,0.00,130,Wunderground v.1.15,2013-07-04 23:15:00,
2013-07-04 18:25:00,85.0,58.7,29.78,SSE,161,4.0,4.0,41,0.00,,,0.00,144,Wunderground v.1.15,2013-07-04 23:25:00,
2013-07-04 18:30:00,85.1,60.7,29.78,South,179,4.0,4.0,44,0.00,,,0.00,135,Wunderground v.1.15,2013-07-04 23:30:00,
2013-07-04 18:40:00,84.9,59.2,29.78,SSW,196,3.0,4.0,42,0.00,,,0.00,91,Wunderground v.1.15,2013-07-04 23:40:00,
2013-07-04 18:45:00,84.5,57.5,29.78,South,190,3.0,4.0,40,0.00,,,0.00,79,Wunderground v.1.15,2013-07-04 23:45:00,
2013-07-04 18:50:00,84.3,58.7,29.78,SSW,201,4.0,4.0,42,0.00,,,0.00,77,Wunderground v.1.15,2013-07-04 23:50:00,
2013-07-04 18:55:00,84.3,58.7,29.78,SSW,204,5.0,5.0,42,0.00,,,0.00,77,Wunderground v.1.15,2013-07-04 23:55:00,
2013-07-04 19:05:00,84.3,58.7,29.77,SSW,200,4.0,6.0,42,0.00,,,0.00,81,Wunderground v.1.15,2013-07-05 00:05:00,
2013-07-04 19:15:00,84.0,58.4,29.77,South,178,4.0,7.0,42,0.00,,,0.00,162,Wunderground v.1.15,2013-07-05 00:15:00,
2013-07-04 19:25:00,83.7,58.8,29.77,SSE,148,4.0,5.0,43,0.00,,,0.00,206,Wunderground v.1.15,2013-07-05 00:25:00,
2013-07-04 19:30:00,83.5,59.3,29.77,SSE,167,3.0,3.0,44,0.00,,,0.00,192,Wunderground v.1.15,2013-07-05 00:30:00,
2013-07-04 19:35:00,83.3,58.5,29.77,SSW,200,3.0,3.0,43,0.00,,,0.00,134,Wunderground v.1.15,2013-07-05 00:35:00,
2013-07-04 19:40:00,83.2,59.0,29.77,SSW,202,3.0,3.0,44,0.00,,,0.00,84,Wunderground v.1.15,2013-07-05 00:40:00,
2013-07-04 19:45:00,82.8,59.3,29.77,South,177,3.0,4.0,45,0.00,,,0.00,76,Wunderground v.1.15,2013-07-05 00:45:00,
2013-07-04 19:50:00,82.6,59.1,29.77,SSE,156,3.0,3.0,45,0.00,,,0.00,74,Wunderground v.1.15,2013-07-05 00:50:00,
2013-07-04 20:00:00,82.3,59.4,29.77,South,178,1.0,2.0,46,0.00,,,0.00,60,Wunderground v.1.15,2013-07-05 01:00:00,
2013-07-04 20:05:00,82.1,59.3,29.77,South,178,1.0,2.0,46,0.00,,,0.00,33,Wunderground v.1.15,2013-07-05 01:05:00,
2013-07-04 20:15:00,81.6,58.8,29.77,South,176,1.0,2.0,46,0.00,,,0.00,23,Wunderground v.1.15,2013-07-05 01:15:00,
2013-07-04 20:25:00,81.0,58.9,29.77,South,176,1.0,2.0,47,0.00,,,0.00,21,Wunderground v.1.15,2013-07-05 01:25:00,
2013-07-04 20:30:00,80.7,58.6,29.77,South,176,2.0,2.0,47,0.00,,,0.00,19,Wunderground v.1.15,2013-07-05 01:30:00,
2013-07-04 20:35:00,80.6,59.1,29.77,South,181,2.0,2.0,48,0.00,,,0.00,18,Wunderground v.1.15,2013-07-05 01:35:00,
2013-07-04 20:40:00,80.4,58.9,29.77,South,171,2.0,2.0,48,0.00,,,0.00,16,Wunderground v.1.15,2013-07-05 01:40:00,
2013-07-04 20:45:00,80.1,58.6,29.77,South,171,1.0,2.0,48,0.00,,,0.00,12,Wunderground v.1.15,2013-07-05 01:45:00,
2013-07-04 20:50:00,79.9,59.0,29.77,South,171,1.0,1.0,49,0.00,,,0.00,9,Wunderground v.1.15,2013-07-05 01:50:00,
2013-07-04 20:55:00,79.7,58.8,29.77,SSE,157,1.0,4.0,49,0.00,,,0.00,5,Wunderground v.1.15,2013-07-05 01:55:00,
2013-07-04 21:05:00,79.4,58.6,29.77,SSE,149,2.0,2.0,49,0.00,,,0.00,0,Wunderground v.1.15,2013-07-05 02:05:00,
2013-07-04 21:15:00,79.1,58.9,29.77,SSE,164,1.0,3.0,50,0.00,,,0.00,0,Wunderground v.1.15,2013-07-05 02:15:00,
2013-07-04 21:20:00,78.7,58.5,29.77,SSE,152,1.0,3.0,50,0.00,,,0.00,0,Wunderground v.1.15,2013-07-05 02:20:00,
2013-07-04 21:25:00,78.7,58.5,29.77,SE,144,1.0,3.0,50,0.00,,,0.00,0,Wunderground v.1.15,2013-07-05 02:25:00,
2013-07-04 21:30:00,78.7,58.5,29.77,South,184,2.0,3.0,50,0.00,,,0.00,0,Wunderground v.1.15,2013-07-05 02:30:00,
2013-07-04 21:35:00,78.7,58.5,29.77,SSE,167,2.0,3.0,50,0.00,,,0.00,0,Wunderground v.1.15,2013-07-05 02:35:00,
2013-07-04 21:40:00,78.5,58.9,29.77,South,181,2.0,2.0,51,0.00,,,0.00,0,Wunderground v.1.15,2013-07-05 02:40:00,
2013-07-04 21:45:00,78.2,58.6,29.77,SSW,198,2.0,2.0,51,0.00,,,0.00,0,Wunderground v.1.15,2013-07-05 02:45:00,
2013-07-04 21:50:00,78.0,58.4,29.78,SSW,192,2.0,3.0,51,0.00,,,0.00,0,Wunderground v.1.15,2013-07-05 02:50:00,
2013-07-04 21:55:00,77.9,58.3,29.78,SE,131,2.0,3.0,51,0.00,,,0.00,0,Wunderground v.1.15,2013-07-05 02:55:00,
2013-07-04 22:00:00,77.8,58.2,29.78,SSE,153,3.0,3.0,51,0.00,,,0.00,0,Wunderground v.1.15,2013-07-05 03:00:00,
2013-07-04 22:05:00,77.8,58.8,29.78,SE,136,3.0,3.0,52,0.00,,,0.00,0,Wunderground v.1.15,2013-07-05 03:05:00,
2013-07-04 22:15:00,77.5,58.5,29.78,SSW,211,3.0,4.0,52,0.00,,,0.00,0,Wunderground v.1.15,2013-07-05 03:15:00,
2013-07-04 22:20:00,77.3,58.8,29.78,South,180,3.0,4.0,53,0.00,,,0.00,0,Wunderground v.1.15,2013-07-05 03:20:00,
2013-07-04 22:25:00,76.9,58.5,29.78,South,188,2.0,4.0,53,0.00,,,0.00,0,Wunderground v.1.15,2013-07-05 03:25:00,
2013-07-04 22:30:00,76.6,58.7,29.78,SSE,164,2.0,3.0,54,0.00,,,0.00,0,Wunderground v.1.15,2013-07-05 03:30:00,
2013-07-04 22:35:00,76.3,58.4,29.79,South,186,2.0,3.0,54,0.00,,,0.00,0,Wunderground v.1.15,2013-07-05 03:35:00,
2013-07-04 22:45:00,76.2,58.3,29.79,South,187,2.0,4.0,54,0.00,,,0.00,0,Wunderground v.1.15,2013-07-05 03:45:00,
2013-07-04 22:50:00,76.0,58.2,29.80,South,179,2.0,3.0,54,0.00,,,0.00,0,Wunderground v.1.15,2013-07-05 03:50:00,
2013-07-04 23:00:00,75.6,58.3,29.80,SSW,200,2.0,6.0,55,0.00,,,0.00,0,Wunderground v.1.15,2013-07-05 04:00:00,
2013-07-04 23:05:00,75.6,58.3,29.80,South,183,3.0,6.0,55,0.00,,,0.00,0,Wunderground v.1.15,2013-07-05 04:05:00,
2013-07-04 23:10:00,75.6,58.3,29.80,South,186,3.0,3.0,55,0.00,,,0.00,0,Wunderground v.1.15,2013-07-05 04:10:00,
2013-07-04 23:15:00,75.4,58.1,29.80,South,188,3.0,3.0,55,0.00,,,0.00,0,Wunderground v.1.15,2013-07-05 04:15:00,
2013-07-04 23:20:00,75.2,57.9,29.80,SSW,201,3.0,3.0,55,0.00,,,0.00,0,Wunderground v.1.15,2013-07-05 04:20:00,
2013-07-04 23:25:00,75.2,57.9,29.80,South,185,3.0,6.0,55,0.00,,,0.00,0,Wunderground v.1.15,2013-07-05 04:25:00,
2013-07-04 23:30:00,75.3,58.0,29.80,SSE,156,4.0,4.0,55,0.00,,,0.00,0,Wunderground v.1.15,2013-07-05 04:30:00,
2013-07-04 23:35:00,75.3,58.0,29.80,SSW,192,4.0,4.0,55,0.00,,,0.00,0,Wunderground v.1.15,2013-07-05 04:35:00,
2013-07-04 23:45:00,75.2,57.9,29.80,South,190,3.0,4.0,55,0.00,,,0.00,0,Wunderground v.1.15,2013-07-05 04:45:00,
2013-07-04 23:50:00,75.3,57.5,29.80,SSW,196,3.0,5.0,54,0.00,,,0.00,0,Wunderground v.1.15,2013-07-05 04:50:00,
2013-07-04 23:55:00,75.2,57.9,29.80,South,179,3.0,5.0,55,0.00,,,0.00,0,Wunderground v.1.15,2013-07-05 04:55:00,